This demonstration page uses our WeatherBlox Daily Observations layout. Learn more.

Hourly Observations for May 23, 2016

Temp ( °F °C ) Dew Point ( °F °C ) Humidity (%) Winds ( mph kmh ) Pressure ( in mb ) Visibility ( mi km ) Precip ( " mm )
12:15 am 00:15 Cloudy with Light Drizzle 55 13 55 13 100 100 N 6 9 29.94 1014 10 16.0934 0 0
12:35 am 00:35 Cloudy with Light Drizzle 55 13 55 13 100 100 N 5 7 29.94 1014 10 16.0934 0 0
12:55 am 00:55 Cloudy with Light Rain 55 13 55 13 100 100 N 6 9 29.94 1014 10 16.0934 0 0
1:15 am 01:15 Cloudy 55 13 55 13 100 100 N 5 7 29.94 1014 10 16.0934 0 0
1:35 am 01:35 Cloudy 55 13 55 13 100 100 N 5 7 29.94 1014 10 16.0934 0 0
1:55 am 01:55 Cloudy with Light Rain 55 13 55 13 100 100 N 3 6 29.94 1014 10 16.0934 0 0
2:15 am 02:15 Cloudy with Light Rain 55 13 55 13 100 100 NNW 3 6 29.94 1014 7 11.26538 0 0
2:35 am 02:35 Cloudy 55 13 55 13 100 100 Calm 29.91 1013 7 11.26538 0 0
2:55 am 02:55 Cloudy 55 13 55 13 100 100 NNW 5 7 29.91 1013 10 16.0934 0 0
3:15 am 03:15 Cloudy with Light Rain 55 13 55 13 100 100 Calm 29.91 1013 10 16.0934 0 0
3:35 am 03:35 Cloudy 55 13 55 13 100 100 Calm 29.91 1013 7 11.26538 0 0
3:55 am 03:55 Cloudy 55 13 55 13 100 100 WNW 3 6 29.91 1013 10 16.0934 0 0
4:15 am 04:15 Cloudy 55 13 55 13 100 100 WNW 3 6 29.91 1013 7 11.26538 0 0
4:35 am 04:35 Cloudy with Light Rain 55 13 55 13 100 100 Calm 29.94 1014 7 11.26538 0 0
4:55 am 04:55 Cloudy 55 13 55 13 100 100 NNW 3 6 29.94 1014 7 11.26538 0 0
5:15 am 05:15 Cloudy 55 13 55 13 100 100 Calm 29.94 1014 10 16.0934 0 0
5:35 am 05:35 Cloudy 55 13 55 13 100 100 SW 8 13 29.94 1014 7 11.26538 0 0
5:55 am 05:55 Cloudy with Mist and Fog 55 13 55 13 100 100 WNW 5 7 29.94 1014 3 4.82802 0 0
6:15 am 06:15 Cloudy with Mist and Fog 55 13 55 13 100 100 NW 5 7 29.94 1014 5 8.0467 0 0
6:35 am 06:35 Cloudy with Mist and Fog 55 13 55 13 100 100 WNW 3 6 29.94 1014 5 8.0467 0 0
6:55 am 06:55 Cloudy 55 13 55 13 100 100 W 3 6 29.94 1014 7 11.26538 0 0
7:15 am 07:15 Cloudy 55 13 55 13 100 100 NW 3 6 29.97 1015 7 11.26538 0 0
7:35 am 07:35 Cloudy 57 14 57 14 100 100 NNW 5 7 29.97 1015 10 16.0934 0 0
7:55 am 07:55 Cloudy 59 15 59 15 100 100 NW 6 9 29.97 1015 10 16.0934 0 0
8:15 am 08:15 Mostly Cloudy 61 16 59 15 94 94 NW 5 7 29.97 1015 10 16.0934 0 0
8:35 am 08:35 Partly Cloudy 61 16 59 15 94 94 NNW 5 7 29.97 1015 10 16.0934 0 0
8:55 am 08:55 Partly Cloudy 63 17 59 15 88 88 NNW 7 11 29.97 1015 10 16.0934 0 0
9:15 am 09:15 Partly Cloudy 63 17 59 15 88 88 N 7 11 30 1016 10 16.0934 0 0
9:35 am 09:35 Mostly Cloudy 64 18 59 15 83 83 NNW 6 9 29.97 1015 10 16.0934 0 0
9:55 am 09:55 Partly Cloudy 64 18 57 14 78 78 N 7 11 30 1016 10 16.0934 0 0
10:15 am 10:15 Partly Cloudy 66 19 59 15 78 78 N 3 6 29.97 1015 10 16.0934 0 0
10:35 am 10:35 Partly Cloudy 66 19 59 15 78 78 NNW 7 11 29.97 1015 10 16.0934 0 0
10:55 am 10:55 Partly Cloudy 68 20 59 15 73 73 N 6 9 29.97 1015 10 16.0934 0 0
11:15 am 11:15 Partly Cloudy 68 20 59 15 73 73 N 5 7 29.97 1015 10 16.0934 0 0
11:35 am 11:35 Partly Cloudy 70 21 61 16 73 73 NW 6 9 29.97 1015 10 16.0934 0 0
11:55 am 11:55 Mostly Cloudy 72 22 59 15 65 65 WNW 7 11 29.97 1015 10 16.0934 0 0
12:15 pm 12:15 Mostly Cloudy 70 21 59 15 69 69 N 6 9 29.97 1015 10 16.0934 0 0
12:35 pm 12:35 Partly Cloudy 72 22 59 15 65 65 NNW 9 15 29.97 1015 10 16.0934 0 0
12:55 pm 12:55 Partly Cloudy 72 22 59 15 65 65 NW 5 7 29.97 1015 10 16.0934 0 0
1:15 pm 13:15 Partly Cloudy 72 22 61 16 69 69 NNW 9 15 29.97 1015 10 16.0934 0 0
1:35 pm 13:35 Partly Cloudy 72 22 61 16 69 69 NW 12 19 29.97 1015 10 16.0934 0 0
1:55 pm 13:55 Sunny 72 22 59 15 65 65 NNW 13 20 29.97 1015 10 16.0934 0 0
2:15 pm 14:15 Sunny 72 22 59 15 65 65 NNW 10 17 29.94 1014 10 16.0934 0 0
2:35 pm 14:35 Sunny 73 23 59 15 61 61 NW 10 17 29.94 1014 10 16.0934 0 0
2:55 pm 14:55 Partly Cloudy 73 23 59 15 61 61 NW 8 13 29.94 1014 10 16.0934 0 0
3:15 pm 15:15 Partly Cloudy with Nearby Thunderstorms 73 23 55 13 53 53 NNW 9 15 29.94 1014 10 16.0934 0 0
3:35 pm 15:35 Sunny 77 25 52 11 42 42 NW 10 17 29.94 1014 10 16.0934 0 0
3:55 pm 15:55 Mostly Cloudy 75 24 54 12 47 47 NW 10 17 29.91 1013 10 16.0934 0 0
4:15 pm 16:15 Partly Cloudy with Nearby Thunderstorms 77 25 55 13 47 47 NNW 10 17 29.91 1013 10 16.0934 0 0
4:35 pm 16:35 Sunny 77 25 55 13 47 47 NNW 12 19 29.91 1013 10 16.0934 0 0
4:55 pm 16:55 Sunny 77 25 55 13 47 47 NW 12 19 29.91 1013 10 16.0934 0 0
5:15 pm 17:15 Partly Cloudy with Thunderstorms 77 25 52 11 42 42 N 14 22 29.91 1013 10 16.0934 0 0
5:35 pm 17:35 Cloudy with Nearby Thunderstorms 73 23 54 12 50 50 NW 12 19 29.91 1013 10 16.0934 0 0
5:55 pm 17:55 Windy with Storms Likely 73 23 55 13 53 53 ENE 22 35 29.91 1013 10 16.0934 0 0
6:15 pm 18:15 Mostly Cloudy 64 18 61 16 88 88 ESE 3 6 29.94 1014 10 16.0934 0 0
6:35 pm 18:35 Partly Cloudy 63 17 61 16 94 94 ESE 5 7 29.94 1014 10 16.0934 0 0
6:55 pm 18:55 Partly Cloudy 63 17 61 16 94 94 SE 6 9 29.94 1014 10 16.0934 0 0
7:15 pm 19:15 Mostly Cloudy 63 17 61 16 94 94 SE 5 7 29.97 1015 10 16.0934 0 0
7:35 pm 19:35 Partly Cloudy 63 17 61 16 94 94 SE 8 13 29.97 1015 10 16.0934 0 0
7:55 pm 19:55 Partly Cloudy 63 17 61 16 94 94 SSE 8 13 29.97 1015 10 16.0934 0 0
8:15 pm 20:15 Mostly Cloudy 63 17 61 16 94 94 SW 7 11 29.97 1015 10 16.0934 0 0
8:35 pm 20:35 Cloudy 63 17 61 16 94 94 WSW 7 11 29.97 1015 10 16.0934 0 0
8:55 pm 20:55 Cloudy 61 16 61 16 100 100 W 7 11 29.97 1015 10 16.0934 0 0
9:15 pm 21:15 Cloudy 63 17 61 16 94 94 WSW 5 7 29.97 1015 10 16.0934 0 0
9:35 pm 21:35 Cloudy 63 17 61 16 94 94 W 6 9 30 1016 10 16.0934 0 0
9:55 pm 21:55 Cloudy 63 17 61 16 94 94 WSW 5 7 30 1016 10 16.0934 0 0
10:15 pm 22:15 Cloudy 61 16 61 16 100 100 WSW 3 6 30 1016 10 16.0934 0 0
10:35 pm 22:35 Mostly Cloudy 61 16 59 15 94 94 WSW 3 6 30 1016 10 16.0934 0 0
10:55 pm 22:55 Clear 61 16 59 15 94 94 SW 5 7 29.97 1015 10 16.0934 0 0
11:15 pm 23:15 Clear 61 16 59 15 94 94 WSW 6 9 30 1016 10 16.0934 0 0
11:35 pm 23:35 Clear 59 15 59 15 100 100 W 7 11 29.97 1015 10 16.0934 0 0
11:55 pm 23:55 Clear 61 16 59 15 94 94 WSW 6 9 29.97 1015 10 16.0934 0 0

Powered by AerisWeather